Harare Kutsaga, Zimbabwe

9:56 PM CAT on September 25, 2017 (GMT +0200)
Harare Kutsaga

Weather History for FVHA - September, 2013

Change the Weather History Date:

Monday, September 23, 2013

  Actual Average Record
Temperature  
Mean Temperature 66 °F -  
Max Temperature 79 °F 82 °F 90 °F (2012)
Min Temperature 52 °F 55 °F 46 °F (2006)
Growing Degree Days 16 (Base 50)    
Moisture  
Dew Point 49 °F    
Average Humidity 55    
Maximum Humidity 94    
Minimum Humidity 23    
Precipitation  
Precipitation 0.00 in 0.04 in - ()
Sea Level Pressure  
Sea Level Pressure 30.27 in    
Wind  
Wind Speed 10 mph ()    
Max Wind Speed 18 mph    
Max Gust Speed 28 mph    
Visibility 9.9 miles    
Events      
Averages and records for this station are not official NWS values.
T = Trace of Precipitation, MM = Missing Value Source: Averaged Metar Reports

Daily Weather History Graph

Daily Weather History Graph

Search for Another Location

Airport or City:

Trip Planner

Search our weather history database for the weather conditions in past years. The results will help you decide how hot, cold, wet, or windy it might be!

Date:

Astronomy

Sep. 23, 2013 Rise Set
Actual Time 5:44 AM CAT 5:51 PM CAT
Civil Twilight 5:22 AM CAT 6:13 PM CAT
Nautical Twilight 4:57 AM CAT 6:38 PM CAT
Astronomical Twilight 4:32 AM CAT 7:03 PM CAT
Moon 9:34 PM CAT (9/23) 8:23 AM CAT (9/23)
Length of Visible Light 12h 50m
Length of Day
12h 07m
Waning Gibbous, 83% of the Moon is Illuminated
Sep 23
Waning Gibbous
Sep 27
Last Quarter
Oct 5
New
Oct 12
First Quarter
Oct 19
Full

Hourly Weather History & Observations

Time (CAT) Temp. Dew Point Humidity Pressure Visibility Wind Dir Wind Speed Gust Speed Precip Events Conditions
12:00 AM 59.0 °F 51.8 °F 77% 30.30 in - SSE 8.1 mph - N/A   Clear
3:00 AM 57.2 °F 53.6 °F 88% 30.27 in 4.3 mi SE 8.1 mph - N/A   Unknown
5:00 AM 53.6 °F 51.8 °F 94% 30.30 in 4.3 mi ESE 4.6 mph - N/A   Unknown
6:00 AM 53.6 °F 51.8 °F 94% 30.30 in - ESE 9.2 mph - N/A   Clear
7:00 AM 57.2 °F 53.6 °F 88% 30.33 in - ESE 8.1 mph - N/A   Clear
8:00 AM 61 °F 53 °F 68%  in 16 mi ESE 13.8 mph - -  
8:00 AM 60.8 °F 53.6 °F 77% 30.33 in - ESE 13.8 mph - N/A   Clear
9:00 AM 66.2 °F 50.0 °F 56% 30.33 in 6.2 mi East 17.3 mph - N/A   Partly Cloudy
10:00 AM 71.6 °F 48.2 °F 43% 30.33 in 6.2 mi East 18.4 mph - N/A   Partly Cloudy
11:00 AM 73.4 °F 46.4 °F 38% 30.33 in - East 16.1 mph - N/A   Clear
12:00 PM 75.2 °F 48.2 °F 38% 30.27 in - East 16.1 mph - N/A   Clear
1:00 PM 75.2 °F 46.4 °F 36% 30.24 in - ENE 12.7 mph 27.6 mph N/A   Clear
2:00 PM 77 °F 46 °F 23%  in 16 mi East 13.8 mph - -   Partly Cloudy
2:00 PM 77.0 °F 46.4 °F 34% 30.21 in - East 13.8 mph - N/A   Clear
3:00 PM 78.8 °F 46.4 °F 32% 30.21 in - NE 13.8 mph - N/A   Clear
4:00 PM 77.0 °F 46.4 °F 34% 30.21 in - ENE 10.4 mph - N/A   Clear
5:00 PM 73.4 °F 46.4 °F 38% 30.21 in - East 12.7 mph - N/A   Clear
6:00 PM 69.8 °F 48.2 °F 46% 30.24 in - ENE 11.5 mph - N/A   Clear
7:00 PM 68.0 °F 48.2 °F 49% 30.24 in - NE 10.4 mph - N/A   Clear
8:00 PM 66 °F 49 °F 43%  in 16 mi NE 8.1 mph - -  
8:00 PM 66.2 °F 48.2 °F 52% 30.27 in - NE 8.1 mph - N/A   Clear
9:00 PM 64.4 °F 48.2 °F 56% 30.27 in - ENE 9.2 mph - N/A   Clear
10:00 PM 62.6 °F 48.2 °F 59% 30.27 in - East 8.1 mph - N/A   Clear
11:00 PM 60.8 °F 48.2 °F 63% 30.27 in - East 9.2 mph - N/A   Clear